Time,TemperatureF,DewpointF,PressureIn,WindDirection,WindDirectionDegrees,WindSpeedMPH,WindSpeedGustMPH,Humidity,HourlyPrecipIn,Conditions,Clouds,dailyrainin,SoftwareType,DateUTC
2013-03-23 00:00:00,33.2,20.4,29.84,West,259,6.0,6.0,59,0.00,,---,0.00,VWS V14.01,2013-03-23 04:00:00,
2013-03-23 00:02:00,33.2,20.0,29.84,West,261,3.0,4.0,58,0.00,,---,0.00,VWS V14.01,2013-03-23 04:02:00,
2013-03-23 00:07:00,33.2,20.0,29.84,West,279,3.0,11.0,58,0.00,,---,0.00,VWS V14.01,2013-03-23 04:07:00,
2013-03-23 00:13:00,33.1,19.9,29.84,WSW,246,1.0,2.0,58,0.00,,---,0.00,VWS V14.01,2013-03-23 04:13:00,
2013-03-23 00:18:00,32.9,19.8,29.84,West,276,0.0,5.0,58,0.00,,---,0.00,VWS V14.01,2013-03-23 04:18:00,
2013-03-23 00:23:00,32.9,19.8,29.84,WSW,247,0.0,4.0,58,0.00,,---,0.00,VWS V14.01,2013-03-23 04:23:00,
2013-03-23 00:28:00,32.9,19.8,29.84,SW,224,5.0,5.0,58,0.00,,---,0.00,VWS V14.01,2013-03-23 04:28:00,
2013-03-23 00:34:00,32.9,19.8,29.84,West,280,4.0,4.0,58,0.00,,---,0.00,VWS V14.01,2013-03-23 04:34:00,
2013-03-23 00:39:00,32.9,19.8,29.84,WSW,240,1.0,6.0,58,0.00,,---,0.00,VWS V14.01,2013-03-23 04:39:00,
2013-03-23 00:45:00,32.8,20.1,29.84,WSW,250,3.0,3.0,59,0.00,,---,0.00,VWS V14.01,2013-03-23 04:45:00,
2013-03-23 00:50:00,32.7,20.0,29.84,SW,226,3.0,4.0,59,0.00,,---,0.00,VWS V14.01,2013-03-23 04:50:00,
2013-03-23 00:55:00,32.7,20.0,29.84,WSW,255,4.0,4.0,59,0.00,,---,0.00,VWS V14.01,2013-03-23 04:55:00,
2013-03-23 01:00:00,32.7,19.6,29.84,West,262,0.0,3.0,58,0.00,,---,0.00,VWS V14.01,2013-03-23 05:00:00,
2013-03-23 01:05:00,32.7,19.6,29.84,SW,219,1.0,4.0,58,0.00,,---,0.00,VWS V14.01,2013-03-23 05:05:00,
2013-03-23 01:10:00,32.7,20.0,29.84,WSW,238,8.0,10.0,59,0.00,,---,0.00,VWS V14.01,2013-03-23 05:10:00,
2013-03-23 01:15:00,32.7,20.0,29.84,WNW,285,3.0,4.0,59,0.00,,---,0.00,VWS V14.01,2013-03-23 05:15:00,
2013-03-23 01:20:00,32.7,20.0,29.84,SW,231,3.0,5.0,59,0.00,,---,0.00,VWS V14.01,2013-03-23 05:20:00,
2013-03-23 01:25:00,32.5,19.8,29.84,SW,232,4.0,5.0,59,0.00,,---,0.00,VWS V14.01,2013-03-23 05:25:00,
2013-03-23 01:30:00,32.4,19.7,29.84,NW,306,1.0,4.0,59,0.00,,---,0.00,VWS V14.01,2013-03-23 05:30:00,
2013-03-23 01:35:00,32.5,19.8,29.84,WSW,242,2.0,6.0,59,0.00,,---,0.00,VWS V14.01,2013-03-23 05:35:00,
2013-03-23 01:40:00,32.4,19.7,29.84,WSW,247,4.0,6.0,59,0.00,,---,0.00,VWS V14.01,2013-03-23 05:40:00,
2013-03-23 01:45:00,32.4,19.7,29.83,NW,318,0.0,7.0,59,0.00,,---,0.00,VWS V14.01,2013-03-23 05:45:00,
2013-03-23 01:50:00,32.4,19.7,29.84,SW,227,1.0,3.0,59,0.00,,---,0.00,VWS V14.01,2013-03-23 05:50:00,
2013-03-23 01:57:00,32.4,19.7,29.84,West,278,0.0,4.0,59,0.00,,---,0.00,VWS V14.01,2013-03-23 05:57:00,
2013-03-23 02:02:00,32.4,19.7,29.84,NW,311,3.0,3.0,59,0.00,,---,0.00,VWS V14.01,2013-03-23 06:02:00,
2013-03-23 02:08:00,32.2,19.5,29.84,WSW,251,2.0,5.0,59,0.00,,---,0.00,VWS V14.01,2013-03-23 06:08:00,
2013-03-23 02:13:00,32.2,19.5,29.84,NW,309,2.0,4.0,59,0.00,,---,0.00,VWS V14.01,2013-03-23 06:13:00,
2013-03-23 02:18:00,32.2,19.1,29.83,SW,228,2.0,6.0,58,0.00,,---,0.00,VWS V14.01,2013-03-23 06:18:00,
2013-03-23 02:23:00,32.4,19.3,29.83,West,265,2.0,3.0,58,0.00,,---,0.00,VWS V14.01,2013-03-23 06:23:00,
2013-03-23 02:28:00,32.2,19.5,29.83,WSW,246,2.0,6.0,59,0.00,,---,0.00,VWS V14.01,2013-03-23 06:28:00,
2013-03-23 02:34:00,32.2,19.1,29.83,WNW,290,1.0,5.0,58,0.00,,---,0.00,VWS V14.01,2013-03-23 06:34:00,
2013-03-23 02:40:00,32.2,19.1,29.83,SW,232,4.0,4.0,58,0.00,,---,0.00,VWS V14.01,2013-03-23 06:40:00,
2013-03-23 02:45:00,31.9,18.8,29.83,SW,226,2.0,5.0,58,0.00,,---,0.00,VWS V14.01,2013-03-23 06:45:00,
2013-03-23 02:50:00,31.9,19.2,29.83,WSW,237,0.0,3.0,59,0.00,,---,0.00,VWS V14.01,2013-03-23 06:50:00,
2013-03-23 02:55:00,31.8,19.1,29.83,SW,214,1.0,4.0,59,0.00,,---,0.00,VWS V14.01,2013-03-23 06:55:00,
2013-03-23 03:00:00,31.6,18.9,29.83,West,269,0.0,1.0,59,0.00,,---,0.00,VWS V14.01,2013-03-23 07:00:00,
2013-03-23 03:05:00,31.6,18.9,29.83,SW,233,0.0,0.0,59,0.00,,---,0.00,VWS V14.01,2013-03-23 07:05:00,
2013-03-23 03:11:00,31.5,18.8,29.83,West,270,2.0,4.0,59,0.00,,---,0.00,VWS V14.01,2013-03-23 07:11:00,
2013-03-23 03:17:00,31.3,19.0,29.83,WSW,252,2.0,3.0,60,0.00,,---,0.00,VWS V14.01,2013-03-23 07:17:00,
2013-03-23 03:22:00,31.2,19.0,29.83,WSW,240,0.0,0.0,60,0.00,,---,0.00,VWS V14.01,2013-03-23 07:22:00,
2013-03-23 03:27:00,31.3,19.0,29.83,West,263,2.0,4.0,60,0.00,,---,0.00,VWS V14.01,2013-03-23 07:27:00,
2013-03-23 03:32:00,31.3,19.0,29.83,SW,236,2.0,6.0,60,0.00,,---,0.00,VWS V14.01,2013-03-23 07:32:00,
2013-03-23 03:38:00,31.3,19.0,29.82,WSW,244,0.0,3.0,60,0.00,,---,0.00,VWS V14.01,2013-03-23 07:38:00,
2013-03-23 03:44:00,31.2,19.0,29.82,SSW,198,0.0,0.0,60,0.00,,---,0.00,VWS V14.01,2013-03-23 07:44:00,
2013-03-23 03:50:00,31.2,19.3,29.82,SW,221,1.0,4.0,61,0.00,,---,0.00,VWS V14.01,2013-03-23 07:50:00,
2013-03-23 03:55:00,31.2,19.0,29.82,SW,219,0.0,1.0,60,0.00,,---,0.00,VWS V14.01,2013-03-23 07:55:00,
2013-03-23 04:00:00,31.2,19.3,29.82,SW,234,0.0,2.0,61,0.00,,---,0.00,VWS V14.01,2013-03-23 08:00:00,
2013-03-23 04:05:00,31.0,19.1,29.81,WSW,250,0.0,3.0,61,0.00,,---,0.00,VWS V14.01,2013-03-23 08:05:00,
2013-03-23 04:10:00,31.0,19.1,29.81,WSW,245,2.0,4.0,61,0.00,,---,0.00,VWS V14.01,2013-03-23 08:10:00,
2013-03-23 04:16:00,31.2,19.3,29.81,WSW,249,2.0,3.0,61,0.00,,---,0.00,VWS V14.01,2013-03-23 08:16:00,
2013-03-23 04:21:00,31.3,19.4,29.81,WSW,250,2.0,3.0,61,0.00,,---,0.00,VWS V14.01,2013-03-23 08:21:00,
2013-03-23 04:27:00,31.3,19.0,29.81,WNW,286,3.0,3.0,60,0.00,,---,0.00,VWS V14.01,2013-03-23 08:27:00,
2013-03-23 04:32:00,31.3,19.0,29.81,WNW,293,3.0,4.0,60,0.00,,---,0.00,VWS V14.01,2013-03-23 08:32:00,
2013-03-23 04:37:00,31.2,19.3,29.81,SW,230,7.0,7.0,61,0.00,,---,0.00,VWS V14.01,2013-03-23 08:37:00,
2013-03-23 04:42:00,31.3,19.0,29.81,WNW,293,2.0,3.0,60,0.00,,---,0.00,VWS V14.01,2013-03-23 08:42:00,
2013-03-23 04:47:00,31.3,19.4,29.81,WNW,293,2.0,9.0,61,0.00,,---,0.00,VWS V14.01,2013-03-23 08:47:00,
2013-03-23 04:52:00,31.5,19.2,29.81,SSW,203,8.0,8.0,60,0.00,,---,0.00,VWS V14.01,2013-03-23 08:52:00,
2013-03-23 04:57:00,31.5,19.2,29.81,SW,235,1.0,3.0,60,0.00,,---,0.00,VWS V14.01,2013-03-23 08:57:00,
2013-03-23 05:02:00,31.3,19.0,29.81,WSW,252,2.0,3.0,60,0.00,,---,0.00,VWS V14.01,2013-03-23 09:02:00,
2013-03-23 05:08:00,31.3,19.0,29.81,SSW,194,4.0,6.0,60,0.00,,---,0.00,VWS V14.01,2013-03-23 09:08:00,
2013-03-23 05:14:00,31.3,19.0,29.81,WNW,292,0.0,5.0,60,0.00,,---,0.00,VWS V14.01,2013-03-23 09:14:00,
2013-03-23 05:19:00,31.3,19.0,29.81,SW,234,3.0,4.0,60,0.00,,---,0.00,VWS V14.01,2013-03-23 09:19:00,
2013-03-23 05:24:00,31.3,19.4,29.81,WSW,249,3.0,4.0,61,0.00,,---,0.00,VWS V14.01,2013-03-23 09:24:00,
2013-03-23 05:30:00,31.3,19.0,29.81,West,275,3.0,5.0,60,0.00,,---,0.00,VWS V14.01,2013-03-23 09:30:00,
2013-03-23 05:35:00,31.2,19.3,29.81,West,275,3.0,7.0,61,0.00,,---,0.00,VWS V14.01,2013-03-23 09:35:00,
2013-03-23 05:41:00,31.2,19.3,29.81,West,261,4.0,7.0,61,0.00,,---,0.00,VWS V14.01,2013-03-23 09:41:00,
2013-03-23 05:46:00,31.3,19.0,29.81,SSW,205,2.0,10.0,60,0.00,,---,0.00,VWS V14.01,2013-03-23 09:46:00,
2013-03-23 05:51:00,31.2,19.3,29.81,WNW,290,5.0,7.0,61,0.00,,---,0.00,VWS V14.01,2013-03-23 09:51:00,
2013-03-23 05:56:00,31.2,19.3,29.81,SW,229,6.0,6.0,61,0.00,,---,0.00,VWS V14.01,2013-03-23 09:56:00,
2013-03-23 06:02:00,31.2,19.3,29.81,WSW,247,6.0,9.0,61,0.00,,---,0.00,VWS V14.01,2013-03-23 10:02:00,
2013-03-23 06:07:00,31.2,19.3,29.82,WSW,240,9.0,9.0,61,0.00,,---,0.00,VWS V14.01,2013-03-23 10:07:00,
2013-03-23 06:12:00,31.3,19.0,29.82,WNW,289,5.0,9.0,60,0.00,,---,0.00,VWS V14.01,2013-03-23 10:12:00,
2013-03-23 06:17:00,31.3,19.0,29.82,WSW,242,3.0,5.0,60,0.00,,---,0.00,VWS V14.01,2013-03-23 10:17:00,
2013-03-23 06:22:00,31.3,19.4,29.82,West,276,3.0,6.0,61,0.00,,---,0.00,VWS V14.01,2013-03-23 10:22:00,
2013-03-23 06:28:00,31.3,19.4,29.82,West,260,2.0,6.0,61,0.00,,---,0.00,VWS V14.01,2013-03-23 10:28:00,
2013-03-23 06:33:00,31.3,19.4,29.82,WSW,256,4.0,11.0,61,0.00,,---,0.00,VWS V14.01,2013-03-23 10:33:00,
2013-03-23 06:38:00,31.3,19.4,29.82,West,269,5.0,5.0,61,0.00,,---,0.00,VWS V14.01,2013-03-23 10:38:00,
2013-03-23 06:43:00,31.3,19.4,29.82,SW,220,4.0,6.0,61,0.00,,---,0.00,VWS V14.01,2013-03-23 10:43:00,
2013-03-23 06:48:00,31.3,19.0,29.82,West,260,3.0,6.0,60,0.00,,---,0.00,VWS V14.01,2013-03-23 10:48:00,
2013-03-23 06:53:00,31.3,19.0,29.82,NW,308,2.0,4.0,60,0.00,,---,0.00,VWS V14.01,2013-03-23 10:53:00,
2013-03-23 06:58:00,31.3,19.0,29.82,WSW,250,4.0,6.0,60,0.00,,---,0.00,VWS V14.01,2013-03-23 10:58:00,
2013-03-23 07:03:00,31.2,19.3,29.82,West,265,4.0,5.0,61,0.00,,---,0.00,VWS V14.01,2013-03-23 11:03:00,
2013-03-23 07:08:00,31.2,19.3,29.82,SW,229,3.0,6.0,61,0.00,,---,0.00,VWS V14.01,2013-03-23 11:08:00,
2013-03-23 07:13:00,31.2,19.3,29.82,West,270,4.0,4.0,61,0.00,,---,0.00,VWS V14.01,2013-03-23 11:13:00,
2013-03-23 07:18:00,31.2,19.3,29.82,West,260,4.0,7.0,61,0.00,,---,0.00,VWS V14.01,2013-03-23 11:18:00,
2013-03-23 07:24:00,31.3,19.0,29.82,WSW,254,8.0,8.0,60,0.00,,---,0.00,VWS V14.01,2013-03-23 11:24:00,
2013-03-23 07:30:00,31.3,19.0,29.82,West,259,5.0,5.0,60,0.00,,---,0.00,VWS V14.01,2013-03-23 11:30:00,
2013-03-23 07:35:00,31.5,19.2,29.82,West,275,4.0,6.0,60,0.00,,---,0.00,VWS V14.01,2013-03-23 11:35:00,
2013-03-23 07:40:00,31.5,19.2,29.82,NW,306,5.0,5.0,60,0.00,,---,0.00,VWS V14.01,2013-03-23 11:40:00,
2013-03-23 07:47:00,31.6,19.3,29.82,SW,221,2.0,5.0,60,0.00,,---,0.00,VWS V14.01,2013-03-23 11:47:00,
2013-03-23 07:53:00,31.8,19.1,29.83,SW,235,1.0,7.0,59,0.00,,---,0.00,VWS V14.01,2013-03-23 11:53:00,
2013-03-23 07:58:00,31.9,19.2,29.83,WNW,285,6.0,7.0,59,0.00,,---,0.00,VWS V14.01,2013-03-23 11:58:00,
2013-03-23 08:03:00,32.1,19.4,29.83,WSW,257,0.0,4.0,59,0.00,,---,0.00,VWS V14.01,2013-03-23 12:03:00,
2013-03-23 08:08:00,32.2,19.5,29.82,WSW,237,4.0,11.0,59,0.00,,---,0.00,VWS V14.01,2013-03-23 12:08:00,
2013-03-23 08:13:00,32.4,19.7,29.83,West,263,4.0,9.0,59,0.00,,---,0.00,VWS V14.01,2013-03-23 12:13:00,
2013-03-23 08:18:00,32.5,19.4,29.82,SSW,210,5.0,8.0,58,0.00,,---,0.00,VWS V14.01,2013-03-23 12:18:00,
2013-03-23 08:23:00,32.7,19.6,29.82,West,273,4.0,11.0,58,0.00,,---,0.00,VWS V14.01,2013-03-23 12:23:00,
2013-03-23 08:28:00,32.9,19.8,29.82,SSW,198,10.0,10.0,58,0.00,,---,0.00,VWS V14.01,2013-03-23 12:28:00,
2013-03-23 08:34:00,32.9,19.8,29.82,SW,233,4.0,12.0,58,0.00,,---,0.00,VWS V14.01,2013-03-23 12:34:00,
2013-03-23 08:39:00,33.1,19.5,29.82,SW,226,2.0,10.0,57,0.00,,---,0.00,VWS V14.01,2013-03-23 12:39:00,
2013-03-23 08:45:00,33.2,20.0,29.82,WSW,249,2.0,5.0,58,0.00,,---,0.00,VWS V14.01,2013-03-23 12:45:00,
2013-03-23 08:50:00,33.4,19.8,29.82,SSW,205,9.0,10.0,57,0.00,,---,0.00,VWS V14.01,2013-03-23 12:50:00,
2013-03-23 08:55:00,33.5,19.9,29.82,WSW,242,7.0,11.0,57,0.00,,---,0.00,VWS V14.01,2013-03-23 12:55:00,
2013-03-23 09:00:00,33.7,19.7,29.82,West,274,5.0,6.0,56,0.00,,---,0.00,VWS V14.01,2013-03-23 13:00:00,
2013-03-23 09:05:00,33.8,19.4,29.82,WNW,286,5.0,13.0,55,0.00,,---,0.00,VWS V14.01,2013-03-23 13:05:00,
2013-03-23 09:11:00,34.1,19.6,29.82,SSW,203,5.0,6.0,55,0.00,,---,0.00,VWS V14.01,2013-03-23 13:11:00,
2013-03-23 09:17:00,34.3,20.2,29.81,West,273,3.0,5.0,56,0.00,,---,0.00,VWS V14.01,2013-03-23 13:17:00,
2013-03-23 09:22:00,34.6,20.1,29.81,SW,225,1.0,4.0,55,0.00,,---,0.00,VWS V14.01,2013-03-23 13:22:00,
2013-03-23 09:28:00,34.9,19.5,29.81,WSW,249,10.0,10.0,53,0.00,,---,0.00,VWS V14.01,2013-03-23 13:28:00,
2013-03-23 09:34:00,35.0,19.6,29.81,West,260,4.0,5.0,53,0.00,,---,0.00,VWS V14.01,2013-03-23 13:34:00,
2013-03-23 09:40:00,35.2,19.4,29.81,SSW,206,7.0,11.0,52,0.00,,---,0.00,VWS V14.01,2013-03-23 13:40:00,
2013-03-23 09:45:00,35.2,19.4,29.81,West,278,3.0,4.0,52,0.00,,---,0.00,VWS V14.01,2013-03-23 13:45:00,
2013-03-23 09:52:00,35.6,19.7,29.81,WNW,290,2.0,5.0,52,0.00,,---,0.00,VWS V14.01,2013-03-23 13:52:00,
2013-03-23 09:57:00,35.9,19.1,29.81,NW,306,3.0,10.0,50,0.00,,---,0.00,VWS V14.01,2013-03-23 13:57:00,
2013-03-23 10:02:00,36.0,19.6,29.81,WNW,302,1.0,4.0,51,0.00,,---,0.00,VWS V14.01,2013-03-23 14:02:00,
2013-03-23 10:08:00,36.2,19.4,29.81,West,271,6.0,8.0,50,0.00,,---,0.00,VWS V14.01,2013-03-23 14:08:00,
2013-03-23 10:13:00,36.2,19.8,29.81,West,271,3.0,6.0,51,0.00,,---,0.00,VWS V14.01,2013-03-23 14:13:00,
2013-03-23 10:18:00,36.5,19.6,29.81,West,270,3.0,11.0,50,0.00,,---,0.00,VWS V14.01,2013-03-23 14:18:00,
2013-03-23 10:23:00,36.6,19.3,29.81,WNW,297,4.0,9.0,49,0.00,,---,0.00,VWS V14.01,2013-03-23 14:23:00,
2013-03-23 10:28:00,36.8,20.4,29.81,WSW,248,2.0,4.0,51,0.00,,---,0.00,VWS V14.01,2013-03-23 14:28:00,
2013-03-23 10:33:00,37.2,19.3,29.81,SW,219,7.0,11.0,48,0.00,,---,0.00,VWS V14.01,2013-03-23 14:33:00,
2013-03-23 10:39:00,36.9,20.0,29.81,West,275,4.0,6.0,50,0.00,,---,0.00,VWS V14.01,2013-03-23 14:39:00,
2013-03-23 10:44:00,37.3,19.9,29.81,SSW,213,6.0,9.0,49,0.00,,---,0.00,VWS V14.01,2013-03-23 14:44:00,
2013-03-23 10:50:00,37.6,19.2,29.81,WNW,294,7.0,7.0,47,0.00,,---,0.00,VWS V14.01,2013-03-23 14:50:00,
2013-03-23 10:55:00,37.3,19.4,29.81,SSW,198,7.0,11.0,48,0.00,,---,0.00,VWS V14.01,2013-03-23 14:55:00,
2013-03-23 11:00:00,37.3,20.4,29.81,West,272,0.0,2.0,50,0.00,,---,0.00,VWS V14.01,2013-03-23 15:00:00,
2013-03-23 11:05:00,37.8,19.9,29.81,West,277,4.0,7.0,48,0.00,,---,0.00,VWS V14.01,2013-03-23 15:05:00,
2013-03-23 11:11:00,37.6,19.7,29.81,West,267,6.0,6.0,48,0.00,,---,0.00,VWS V14.01,2013-03-23 15:11:00,
2013-03-23 11:16:00,37.8,20.4,29.81,West,269,2.0,7.0,49,0.00,,---,0.00,VWS V14.01,2013-03-23 15:16:00,
2013-03-23 11:21:00,37.6,19.7,29.81,West,270,5.0,11.0,48,0.00,,---,0.00,VWS V14.01,2013-03-23 15:21:00,
2013-03-23 11:26:00,37.8,20.8,29.81,WSW,237,6.0,7.0,50,0.00,,---,0.00,VWS V14.01,2013-03-23 15:26:00,
2013-03-23 11:32:00,38.5,19.5,29.80,NNW,347,4.0,11.0,46,0.00,,---,0.00,VWS V14.01,2013-03-23 15:32:00,
2013-03-23 11:37:00,38.3,19.9,29.80,West,271,5.0,12.0,47,0.00,,---,0.00,VWS V14.01,2013-03-23 15:37:00,
2013-03-23 11:42:00,38.8,20.8,29.80,West,271,6.0,6.0,48,0.00,,---,0.00,VWS V14.01,2013-03-23 15:42:00,
2013-03-23 11:48:00,39.5,19.4,29.81,WSW,250,11.0,12.0,44,0.00,,---,0.00,VWS V14.01,2013-03-23 15:48:00,
2013-03-23 11:53:00,39.3,20.8,29.80,WSW,243,3.0,5.0,47,0.00,,---,0.00,VWS V14.01,2013-03-23 15:53:00,
2013-03-23 11:58:00,39.2,20.7,29.81,SW,235,4.0,9.0,47,0.00,,---,0.00,VWS V14.01,2013-03-23 15:58:00,
2013-03-23 12:03:00,39.2,20.7,29.80,WSW,254,6.0,11.0,47,0.00,,---,0.00,VWS V14.01,2013-03-23 16:03:00,
2013-03-23 12:08:00,39.2,20.2,29.80,WSW,256,10.0,13.0,46,0.00,,---,0.00,VWS V14.01,2013-03-23 16:08:00,
2013-03-23 12:13:00,39.9,21.3,29.80,West,277,4.0,10.0,47,0.00,,---,0.00,VWS V14.01,2013-03-23 16:13:00,
2013-03-23 12:19:00,40.6,19.9,29.79,WNW,284,7.0,9.0,43,0.00,,---,0.00,VWS V14.01,2013-03-23 16:19:00,
2013-03-23 12:24:00,40.3,20.7,29.79,WNW,288,4.0,6.0,45,0.00,,---,0.00,VWS V14.01,2013-03-23 16:24:00,
2013-03-23 12:30:00,40.3,20.7,29.80,NNW,342,5.0,5.0,45,0.00,,---,0.00,VWS V14.01,2013-03-23 16:30:00,
2013-03-23 12:35:00,40.2,19.0,29.80,SSW,212,9.0,12.0,42,0.00,,---,0.00,VWS V14.01,2013-03-23 16:35:00,
2013-03-23 12:40:00,39.8,19.1,29.80,NW,308,6.0,8.0,43,0.00,,---,0.00,VWS V14.01,2013-03-23 16:40:00,
2013-03-23 12:45:00,39.6,19.0,29.80,SSW,200,7.0,13.0,43,0.00,,---,0.00,VWS V14.01,2013-03-23 16:45:00,
2013-03-23 12:50:00,39.5,19.9,29.80,WSW,238,12.0,13.0,45,0.00,,---,0.00,VWS V14.01,2013-03-23 16:50:00,
2013-03-23 12:55:00,40.3,21.2,29.80,SSW,213,11.0,13.0,46,0.00,,---,0.00,VWS V14.01,2013-03-23 16:55:00,
2013-03-23 13:01:00,41.1,19.8,29.80,WNW,298,1.0,5.0,42,0.00,,---,0.00,VWS V14.01,2013-03-23 17:01:00,
2013-03-23 13:07:00,41.3,20.5,29.80,WNW,296,3.0,6.0,43,0.00,,---,0.00,VWS V14.01,2013-03-23 17:07:00,
2013-03-23 13:13:00,41.9,19.4,29.80,West,277,3.0,6.0,40,0.00,,---,0.00,VWS V14.01,2013-03-23 17:13:00,
2013-03-23 13:18:00,42.1,18.3,29.80,SW,236,7.0,14.0,38,0.00,,---,0.00,VWS V14.01,2013-03-23 17:18:00,
2013-03-23 13:23:00,41.9,18.8,29.80,WNW,294,6.0,12.0,39,0.00,,---,0.00,VWS V14.01,2013-03-23 17:23:00,
2013-03-23 13:28:00,41.9,17.5,29.80,WSW,241,9.0,12.0,37,0.00,,---,0.00,VWS V14.01,2013-03-23 17:28:00,
2013-03-23 13:33:00,41.9,18.2,29.80,WSW,254,12.0,12.0,38,0.00,,---,0.00,VWS V14.01,2013-03-23 17:33:00,
2013-03-23 13:38:00,41.9,18.2,29.79,West,271,5.0,13.0,38,0.00,,---,0.00,VWS V14.01,2013-03-23 17:38:00,
2013-03-23 13:43:00,42.3,17.3,29.80,West,265,6.0,12.0,36,0.00,,---,0.00,VWS V14.01,2013-03-23 17:43:00,
2013-03-23 13:48:00,41.8,17.5,29.80,NNW,347,3.0,9.0,37,0.00,,---,0.00,VWS V14.01,2013-03-23 17:48:00,
2013-03-23 13:53:00,41.3,18.2,29.79,West,280,5.0,9.0,39,0.00,,---,0.00,VWS V14.01,2013-03-23 17:53:00,
2013-03-23 13:58:00,41.6,19.1,29.79,SW,232,6.0,8.0,40,0.00,,---,0.00,VWS V14.01,2013-03-23 17:58:00,
2013-03-23 14:04:00,42.2,17.2,29.79,SW,224,4.0,9.0,36,0.00,,---,0.00,VWS V14.01,2013-03-23 18:04:00,
2013-03-23 14:09:00,41.6,16.6,29.79,West,261,3.0,10.0,36,0.00,,---,0.00,VWS V14.01,2013-03-23 18:09:00,
2013-03-23 14:14:00,41.8,18.7,29.78,WNW,282,2.0,5.0,39,0.00,,---,0.00,VWS V14.01,2013-03-23 18:14:00,
2013-03-23 14:19:00,42.3,17.9,29.78,West,267,4.0,9.0,37,0.00,,---,0.00,VWS V14.01,2013-03-23 18:19:00,
2013-03-23 14:24:00,42.5,19.3,29.78,WNW,293,3.0,5.0,39,0.00,,---,0.00,VWS V14.01,2013-03-23 18:24:00,
2013-03-23 14:30:00,42.8,16.4,29.78,West,273,5.0,10.0,34,0.00,,---,0.00,VWS V14.01,2013-03-23 18:30:00,
2013-03-23 14:35:00,42.6,16.9,29.77,WNW,294,3.0,10.0,35,0.00,,---,0.00,VWS V14.01,2013-03-23 18:35:00,
2013-03-23 14:40:00,42.9,17.1,29.78,West,267,3.0,10.0,35,0.00,,---,0.00,VWS V14.01,2013-03-23 18:40:00,
2013-03-23 14:45:00,42.9,17.1,29.77,WSW,246,6.0,11.0,35,0.00,,---,0.00,VWS V14.01,2013-03-23 18:45:00,
2013-03-23 14:50:00,43.1,16.0,29.77,WNW,286,4.0,11.0,33,0.00,,---,0.00,VWS V14.01,2013-03-23 18:50:00,
2013-03-23 14:57:00,42.6,16.2,29.77,WSW,239,6.0,11.0,34,0.00,,---,0.00,VWS V14.01,2013-03-23 18:57:00,
2013-03-23 15:03:00,42.6,16.9,29.77,WSW,253,14.0,14.0,35,0.00,,---,0.00,VWS V14.01,2013-03-23 19:03:00,
2013-03-23 15:09:00,42.5,16.1,29.77,West,280,4.0,10.0,34,0.00,,---,0.00,VWS V14.01,2013-03-23 19:09:00,
2013-03-23 15:14:00,42.5,16.8,29.77,SW,217,3.0,10.0,35,0.00,,---,0.00,VWS V14.01,2013-03-23 19:14:00,
2013-03-23 15:19:00,43.3,17.5,29.76,WNW,290,2.0,5.0,35,0.00,,---,0.00,VWS V14.01,2013-03-23 19:19:00,
2013-03-23 15:24:00,43.9,16.0,29.76,WSW,249,3.0,9.0,32,0.00,,---,0.00,VWS V14.01,2013-03-23 19:24:00,
2013-03-23 15:29:00,43.3,16.8,29.76,SW,236,4.0,6.0,34,0.00,,---,0.00,VWS V14.01,2013-03-23 19:29:00,
2013-03-23 15:34:00,43.5,14.1,29.76,WNW,292,12.0,12.0,30,0.00,,---,0.00,VWS V14.01,2013-03-23 19:34:00,
2013-03-23 15:39:00,43.3,13.2,29.76,West,269,7.0,16.0,29,0.00,,---,0.00,VWS V14.01,2013-03-23 19:39:00,
2013-03-23 15:45:00,43.1,16.0,29.76,WNW,284,3.0,5.0,33,0.00,,---,0.00,VWS V14.01,2013-03-23 19:45:00,
2013-03-23 15:50:00,43.5,13.4,29.76,SW,236,5.0,11.0,29,0.00,,---,0.00,VWS V14.01,2013-03-23 19:50:00,
2013-03-23 15:55:00,43.6,13.5,29.76,North,360,5.0,8.0,29,0.00,,---,0.00,VWS V14.01,2013-03-23 19:55:00,
2013-03-23 16:02:00,43.6,15.0,29.76,WNW,296,4.0,7.0,31,0.00,,---,0.00,VWS V14.01,2013-03-23 20:02:00,
2013-03-23 16:07:00,43.9,15.2,29.76,WNW,283,2.0,5.0,31,0.00,,---,0.00,VWS V14.01,2013-03-23 20:07:00,
2013-03-23 16:12:00,44.1,15.4,29.76,WSW,243,3.0,3.0,31,0.00,,---,0.00,VWS V14.01,2013-03-23 20:12:00,
2013-03-23 16:18:00,44.2,15.5,29.76,WNW,303,4.0,6.0,31,0.00,,---,0.00,VWS V14.01,2013-03-23 20:18:00,
2013-03-23 16:23:00,44.1,13.9,29.76,SW,233,6.0,7.0,29,0.00,,---,0.00,VWS V14.01,2013-03-23 20:23:00,
2013-03-23 16:29:00,43.8,14.4,29.76,WSW,241,5.0,9.0,30,0.00,,---,0.00,VWS V14.01,2013-03-23 20:29:00,
2013-03-23 16:34:00,44.2,16.9,29.76,WNW,286,1.0,5.0,33,0.00,,---,0.00,VWS V14.01,2013-03-23 20:34:00,
2013-03-23 16:40:00,44.1,14.7,29.76,SSW,213,9.0,11.0,30,0.00,,---,0.00,VWS V14.01,2013-03-23 20:40:00,
2013-03-23 16:45:00,43.6,15.0,29.77,WSW,256,7.0,10.0,31,0.00,,---,0.00,VWS V14.01,2013-03-23 20:45:00,
2013-03-23 16:51:00,43.6,15.0,29.76,WSW,241,7.0,7.0,31,0.00,,---,0.00,VWS V14.01,2013-03-23 20:51:00,
2013-03-23 16:57:00,44.1,15.4,29.76,WNW,288,4.0,6.0,31,0.00,,---,0.00,VWS V14.01,2013-03-23 20:57:00,
2013-03-23 17:03:00,44.2,14.8,29.77,WNW,298,4.0,6.0,30,0.00,,---,0.00,VWS V14.01,2013-03-23 21:03:00,
2013-03-23 17:08:00,43.9,16.7,29.77,WSW,250,6.0,10.0,33,0.00,,---,0.00,VWS V14.01,2013-03-23 21:08:00,
2013-03-23 17:13:00,43.8,15.1,29.77,West,279,6.0,8.0,31,0.00,,---,0.00,VWS V14.01,2013-03-23 21:13:00,
2013-03-23 17:19:00,43.6,16.4,29.77,WSW,255,5.0,7.0,33,0.00,,---,0.00,VWS V14.01,2013-03-23 21:19:00,
2013-03-23 17:24:00,43.8,15.9,29.77,West,267,2.0,5.0,32,0.00,,---,0.00,VWS V14.01,2013-03-23 21:24:00,
2013-03-23 17:30:00,43.9,14.5,29.77,SW,234,7.0,16.0,30,0.00,,---,0.00,VWS V14.01,2013-03-23 21:30:00,
2013-03-23 17:37:00,43.8,16.6,29.78,NW,313,1.0,4.0,33,0.00,,---,0.00,VWS V14.01,2013-03-23 21:37:00,
2013-03-23 17:42:00,43.5,15.6,29.78,West,280,11.0,11.0,32,0.00,,---,0.00,VWS V14.01,2013-03-23 21:42:00,
2013-03-23 17:48:00,43.2,16.1,29.78,WSW,250,4.0,4.0,33,0.00,,---,0.00,VWS V14.01,2013-03-23 21:48:00,
2013-03-23 17:53:00,42.9,15.1,29.79,West,261,6.0,7.0,32,0.00,,---,0.00,VWS V14.01,2013-03-23 21:53:00,
2013-03-23 17:58:00,42.9,15.1,29.79,WNW,292,3.0,9.0,32,0.00,,---,0.00,VWS V14.01,2013-03-23 21:58:00,
2013-03-23 18:03:00,43.1,16.0,29.79,WNW,294,3.0,6.0,33,0.00,,---,0.00,VWS V14.01,2013-03-23 22:03:00,
2013-03-23 18:08:00,43.2,15.4,29.79,WNW,296,4.0,4.0,32,0.00,,---,0.00,VWS V14.01,2013-03-23 22:08:00,
2013-03-23 18:14:00,42.8,16.4,29.79,NNW,336,6.0,11.0,34,0.00,,---,0.00,VWS V14.01,2013-03-23 22:14:00,
2013-03-23 18:19:00,42.6,14.8,29.79,West,270,2.0,7.0,32,0.00,,---,0.00,VWS V14.01,2013-03-23 22:19:00,
2013-03-23 18:24:00,42.6,14.8,29.79,WSW,254,5.0,6.0,32,0.00,,---,0.00,VWS V14.01,2013-03-23 22:24:00,
2013-03-23 18:29:00,42.6,15.5,29.80,WNW,289,3.0,5.0,33,0.00,,---,0.00,VWS V14.01,2013-03-23 22:29:00,
2013-03-23 18:34:00,42.3,13.1,29.80,West,281,1.0,5.0,30,0.00,,---,0.00,VWS V14.01,2013-03-23 22:34:00,
2013-03-23 18:39:00,41.9,14.2,29.80,WSW,248,5.0,10.0,32,0.00,,---,0.00,VWS V14.01,2013-03-23 22:39:00,
2013-03-23 18:44:00,41.5,13.9,29.80,West,269,2.0,6.0,32,0.00,,---,0.00,VWS V14.01,2013-03-23 22:44:00,
2013-03-23 18:49:00,41.2,14.3,29.81,WNW,301,3.0,10.0,33,0.00,,---,0.00,VWS V14.01,2013-03-23 22:49:00,
2013-03-23 18:54:00,40.9,15.4,29.81,NW,314,4.0,6.0,35,0.00,,---,0.00,VWS V14.01,2013-03-23 22:54:00,
2013-03-23 18:59:00,40.3,14.8,29.81,West,278,3.0,6.0,35,0.00,,---,0.00,VWS V14.01,2013-03-23 22:59:00,
2013-03-23 19:04:00,39.8,15.0,29.81,West,261,3.0,6.0,36,0.00,,---,0.00,VWS V14.01,2013-03-23 23:04:00,
2013-03-23 19:09:00,39.5,16.0,29.82,West,261,2.0,4.0,38,0.00,,---,0.00,VWS V14.01,2013-03-23 23:09:00,
2013-03-23 19:14:00,39.2,15.1,29.82,WNW,298,4.0,5.0,37,0.00,,---,0.00,VWS V14.01,2013-03-23 23:14:00,
2013-03-23 19:19:00,39.1,15.6,29.82,WSW,257,0.0,4.0,38,0.00,,---,0.00,VWS V14.01,2013-03-23 23:19:00,
2013-03-23 19:24:00,38.8,15.4,29.83,West,261,2.0,3.0,38,0.00,,---,0.00,VWS V14.01,2013-03-23 23:24:00,
2013-03-23 19:30:00,38.6,15.2,29.83,West,272,3.0,4.0,38,0.00,,---,0.00,VWS V14.01,2013-03-23 23:30:00,
2013-03-23 19:35:00,38.5,15.7,29.83,West,278,3.0,7.0,39,0.00,,---,0.00,VWS V14.01,2013-03-23 23:35:00,
2013-03-23 19:40:00,38.5,15.7,29.83,WNW,290,3.0,4.0,39,0.00,,---,0.00,VWS V14.01,2013-03-23 23:40:00,
2013-03-23 19:45:00,38.5,15.7,29.83,WNW,286,0.0,4.0,39,0.00,,---,0.00,VWS V14.01,2013-03-23 23:45:00,
2013-03-23 19:50:00,38.3,16.1,29.83,West,281,4.0,4.0,40,0.00,,---,0.00,VWS V14.01,2013-03-23 23:50:00,
2013-03-23 19:55:00,38.2,16.0,29.83,SW,233,6.0,7.0,40,0.00,,---,0.00,VWS V14.01,2013-03-23 23:55:00,
2013-03-23 20:00:00,38.2,16.6,29.83,West,275,4.0,5.0,41,0.00,,---,0.00,VWS V14.01,2013-03-24 00:00:00,
2013-03-23 20:05:00,38.0,16.4,29.84,North,5,0.0,4.0,41,0.00,,---,0.00,VWS V14.01,2013-03-24 00:05:00,
2013-03-23 20:12:00,37.8,16.8,29.84,West,265,1.0,3.0,42,0.00,,---,0.00,VWS V14.01,2013-03-24 00:12:00,
2013-03-23 20:17:00,37.6,17.1,29.84,WNW,298,3.0,3.0,43,0.00,,---,0.00,VWS V14.01,2013-03-24 00:17:00,
2013-03-23 20:22:00,37.3,17.4,29.84,West,267,0.0,0.0,44,0.00,,---,0.00,VWS V14.01,2013-03-24 00:22:00,
2013-03-23 20:28:00,37.3,16.9,29.85,NW,309,0.0,4.0,43,0.00,,---,0.00,VWS V14.01,2013-03-24 00:28:00,
2013-03-23 20:33:00,37.3,17.4,29.85,WSW,253,2.0,2.0,44,0.00,,---,0.00,VWS V14.01,2013-03-24 00:33:00,
2013-03-23 20:38:00,37.3,16.9,29.85,West,277,2.0,2.0,43,0.00,,---,0.00,VWS V14.01,2013-03-24 00:38:00,
2013-03-23 20:44:00,37.3,17.9,29.85,WNW,284,0.0,2.0,45,0.00,,---,0.00,VWS V14.01,2013-03-24 00:44:00,
2013-03-23 20:49:00,37.2,17.3,29.86,WNW,284,2.0,3.0,44,0.00,,---,0.00,VWS V14.01,2013-03-24 00:49:00,
2013-03-23 20:54:00,37.0,18.2,29.86,WNW,284,0.0,1.0,46,0.00,,---,0.00,VWS V14.01,2013-03-24 00:54:00,
2013-03-23 20:59:00,36.9,17.6,29.87,WSW,250,3.0,3.0,45,0.00,,---,0.00,VWS V14.01,2013-03-24 00:59:00,
2013-03-23 21:04:00,36.9,17.6,29.87,West,268,0.0,3.0,45,0.00,,---,0.00,VWS V14.01,2013-03-24 01:04:00,
2013-03-23 21:09:00,36.8,17.0,29.87,WSW,248,1.0,4.0,44,0.00,,---,0.00,VWS V14.01,2013-03-24 01:09:00,
2013-03-23 21:14:00,36.8,16.4,29.87,WSW,246,3.0,3.0,43,0.00,,---,0.00,VWS V14.01,2013-03-24 01:14:00,
2013-03-23 21:20:00,36.8,17.0,29.87,NW,319,0.0,2.0,44,0.00,,---,0.00,VWS V14.01,2013-03-24 01:20:00,
2013-03-23 21:25:00,36.6,16.8,29.87,NNW,344,2.0,7.0,44,0.00,,---,0.00,VWS V14.01,2013-03-24 01:25:00,
2013-03-23 21:30:00,36.5,17.2,29.87,WNW,301,0.0,2.0,45,0.00,,---,0.00,VWS V14.01,2013-03-24 01:30:00,
2013-03-23 21:35:00,36.3,16.0,29.87,WNW,303,0.0,2.0,43,0.00,,---,0.00,VWS V14.01,2013-03-24 01:35:00,
2013-03-23 21:40:00,36.2,15.9,29.87,NW,308,1.0,3.0,43,0.00,,---,0.00,VWS V14.01,2013-03-24 01:40:00,
2013-03-23 21:45:00,35.9,15.6,29.88,NW,308,2.0,3.0,43,0.00,,---,0.00,VWS V14.01,2013-03-24 01:45:00,
2013-03-23 21:52:00,35.6,16.9,29.88,WNW,292,2.0,3.0,46,0.00,,---,0.00,VWS V14.01,2013-03-24 01:52:00,
2013-03-23 21:57:00,35.3,16.1,29.88,North,355,1.0,1.0,45,0.00,,---,0.00,VWS V14.01,2013-03-24 01:57:00,
2013-03-23 22:02:00,35.0,15.3,29.88,West,277,4.0,4.0,44,0.00,,---,0.00,VWS V14.01,2013-03-24 02:02:00,
2013-03-23 22:08:00,35.0,15.8,29.88,NW,305,2.0,3.0,45,0.00,,---,0.00,VWS V14.01,2013-03-24 02:08:00,
2013-03-23 22:13:00,35.0,15.3,29.88,WNW,301,4.0,7.0,44,0.00,,---,0.00,VWS V14.01,2013-03-24 02:13:00,
2013-03-23 22:18:00,35.0,15.3,29.88,WNW,298,0.0,3.0,44,0.00,,---,0.00,VWS V14.01,2013-03-24 02:18:00,
2013-03-23 22:23:00,35.0,15.8,29.88,WNW,300,3.0,3.0,45,0.00,,---,0.00,VWS V14.01,2013-03-24 02:23:00,
2013-03-23 22:28:00,34.9,15.7,29.88,West,265,0.0,4.0,45,0.00,,---,0.00,VWS V14.01,2013-03-24 02:28:00,
2013-03-23 22:33:00,34.9,16.2,29.89,West,260,3.0,3.0,46,0.00,,---,0.00,VWS V14.01,2013-03-24 02:33:00,
2013-03-23 22:38:00,34.7,15.6,29.89,WNW,299,0.0,3.0,45,0.00,,---,0.00,VWS V14.01,2013-03-24 02:38:00,
2013-03-23 22:43:00,34.7,16.0,29.89,NW,309,3.0,3.0,46,0.00,,---,0.00,VWS V14.01,2013-03-24 02:43:00,
2013-03-23 22:48:00,34.7,15.6,29.90,WNW,282,3.0,3.0,45,0.00,,---,0.00,VWS V14.01,2013-03-24 02:48:00,
2013-03-23 22:53:00,34.7,15.6,29.89,WNW,300,3.0,3.0,45,0.00,,---,0.00,VWS V14.01,2013-03-24 02:53:00,
2013-03-23 22:59:00,34.4,16.3,29.89,West,279,2.0,2.0,47,0.00,,---,0.00,VWS V14.01,2013-03-24 02:59:00,
2013-03-23 23:05:00,34.3,16.2,29.89,NNW,329,1.0,2.0,47,0.00,,---,0.00,VWS V14.01,2013-03-24 03:05:00,
2013-03-23 23:10:00,34.1,16.0,29.89,NW,307,1.0,4.0,47,0.00,,---,0.00,VWS V14.01,2013-03-24 03:10:00,
2013-03-23 23:15:00,34.0,15.9,29.89,WNW,286,2.0,2.0,47,0.00,,---,0.00,VWS V14.01,2013-03-24 03:15:00,
2013-03-23 23:20:00,33.8,15.7,29.89,NW,321,2.0,4.0,47,0.00,,---,0.00,VWS V14.01,2013-03-24 03:20:00,
2013-03-23 23:25:00,33.7,15.6,29.89,NNW,334,2.0,6.0,47,0.00,,---,0.00,VWS V14.01,2013-03-24 03:25:00,
2013-03-23 23:30:00,33.7,15.6,29.89,WNW,297,1.0,3.0,47,0.00,,---,0.00,VWS V14.01,2013-03-24 03:30:00,
2013-03-23 23:35:00,33.5,15.4,29.89,WNW,284,3.0,3.0,47,0.00,,---,0.00,VWS V14.01,2013-03-24 03:35:00,
2013-03-23 23:40:00,33.4,16.3,29.89,NW,314,2.0,3.0,49,0.00,,---,0.00,VWS V14.01,2013-03-24 03:40:00,
2013-03-23 23:45:00,33.2,16.1,29.89,West,281,3.0,3.0,49,0.00,,---,0.00,VWS V14.01,2013-03-24 03:45:00,
2013-03-23 23:50:00,33.1,15.6,29.90,West,281,0.0,2.0,48,0.00,,---,0.00,VWS V14.01,2013-03-24 03:50:00,
2013-03-23 23:55:00,32.9,16.3,29.89,WNW,302,2.0,3.0,50,0.00,,---,0.00,VWS V14.01,2013-03-24 03:55:00,